Weather History for KFFL - May, 2013

Change the Weather History Date:

Saturday, May 11, 2013

  Actual Average Record
Temperature  
Mean Temperature 49 °F -  
Max Temperature 57 °F 73 °F 89 °F (2000)
Min Temperature 41 °F 50 °F 34 °F (1981)
Degree Days  
Heating Degree Days 16    
Moisture  
Dew Point 36 °F    
Average Humidity 60    
Maximum Humidity 100    
Minimum Humidity 29    
Precipitation  
Precipitation 0.00 in - - ()
Sea Level Pressure  
Sea Level Pressure 30.07 in    
Wind  
Wind Speed 14 mph (WNW)    
Max Wind Speed 31 mph    
Max Gust Speed 43 mph    
Visibility 10 miles    
Events      
Averages and records for this station are not official NWS values.
T = Trace of Precipitation, MM = Missing Value Source: NWS Daily Summary

Daily Weather History Graph

Daily Weather History Graph

Search for Another Location

Airport or City:

Trip Planner

Search our weather history database for the weather conditions in past years. The results will help you decide how hot, cold, wet, or windy it might be!

Date:

Astronomy

May. 11, 2013 Rise Set
Actual Time 5:53 AM CDT 8:15 PM CDT
Civil Twilight 5:22 AM CDT 8:46 PM CDT
Nautical Twilight 4:44 AM CDT 9:24 PM CDT
Astronomical Twilight 4:02 AM CDT 10:07 PM CDT
Moon 7:01 AM CDT (5/11) 9:56 PM CDT (5/11)
Length of Visible Light 15h 23m
Length of Day
14h 21m
Waxing Crescent, 3% of the Moon is Illuminated
May 11
Waxing Crescent
May 17
First Quarter
May 24
Full
May 31
Last Quarter
Jun 8
New

Hourly Weather History & Observations

Time (CDT) Temp. Windchill Dew Point Humidity Pressure Visibility Wind Dir Wind Speed Gust Speed Precip Events Conditions
12:15 AM 48.2 °F - 46.4 °F 93% 30.02 in 10.0 mi SW 6.9 mph - N/A   Clear
12:35 AM 48.2 °F - 46.4 °F 93% 30.02 in 10.0 mi SSW 5.8 mph - N/A   Clear
12:55 AM 48.2 °F - 46.4 °F 93% 30.02 in 10.0 mi SSW 4.6 mph - N/A   Clear
1:15 AM 48.2 °F - 46.4 °F 93% 30.01 in 10.0 mi SSW 5.8 mph - N/A   Clear
1:35 AM 48.2 °F - 46.4 °F 93% 30.01 in 10.0 mi SSW 4.6 mph - N/A   Clear
1:55 AM 48.2 °F - 46.4 °F 93% 30.00 in 10.0 mi SSW 8.1 mph - N/A   Clear
2:15 AM 48.2 °F - 46.4 °F 93% 30.00 in 10.0 mi SW 5.8 mph - N/A   Clear
2:35 AM 46.4 °F 42.9 °F 46.4 °F 100% 29.99 in 8.0 mi SW 6.9 mph - N/A   Clear
2:55 AM 46.4 °F 43.5 °F 44.6 °F 93% 29.99 in 7.0 mi SSW 5.8 mph - N/A   Clear
3:15 AM 46.4 °F 43.5 °F 46.4 °F 100% 29.99 in 7.0 mi SSW 5.8 mph - N/A   Clear
3:35 AM 46.4 °F 42.9 °F 44.6 °F 93% 29.98 in 6.0 mi SSW 6.9 mph - N/A   Clear
3:55 AM 48.2 °F - 46.4 °F 93% 29.98 in 9.0 mi SSW 6.9 mph - N/A   Clear
4:15 AM 48.2 °F - 46.4 °F 93% 29.98 in 10.0 mi SSW 8.1 mph - N/A   Clear
4:35 AM 46.4 °F 42.9 °F 46.4 °F 100% 29.97 in 7.0 mi SSW 6.9 mph - N/A   Clear
4:55 AM 48.2 °F - 46.4 °F 93% 29.96 in 8.0 mi SSW 8.1 mph - N/A   Mostly Cloudy
5:15 AM 48.2 °F - 46.4 °F 93% 29.96 in 10.0 mi SW 8.1 mph - N/A   Overcast
5:35 AM 48.2 °F - 46.4 °F 93% 29.96 in 10.0 mi SW 8.1 mph - N/A   Overcast
5:55 AM 50.0 °F - 48.2 °F 94% 29.97 in 10.0 mi WSW 9.2 mph - N/A   Overcast
6:15 AM 50.0 °F - 48.2 °F 94% 29.98 in 10.0 mi West 11.5 mph - N/A   Overcast
6:35 AM 51.8 °F - 48.2 °F 88% 29.98 in 10.0 mi West 11.5 mph - N/A   Overcast
6:55 AM 51.8 °F - 46.4 °F 82% 29.99 in 10.0 mi WNW 13.8 mph 19.6 mph N/A   Mostly Cloudy
7:15 AM 51.8 °F - 46.4 °F 82% 30.00 in 10.0 mi NW 17.3 mph - N/A   Mostly Cloudy
7:35 AM 51.8 °F - 44.6 °F 76% 30.00 in 10.0 mi NW 21.9 mph - N/A   Mostly Cloudy
7:55 AM 51.8 °F - 42.8 °F 71% 30.01 in 10.0 mi NW 23.0 mph 32.2 mph N/A   Partly Cloudy
8:15 AM 51.8 °F - 41.0 °F 67% 30.03 in - NW 21.9 mph 31.1 mph N/A   Clear
8:35 AM 51.8 °F - 39.2 °F 62% 30.03 in 10.0 mi NW 19.6 mph 26.5 mph N/A   Clear
8:55 AM 53.6 °F - 37.4 °F 54% 30.04 in 10.0 mi NNW 26.5 mph 33.4 mph N/A   Clear
9:15 AM 53.6 °F - 39.2 °F 58% 30.04 in 10.0 mi NNW 23.0 mph 29.9 mph N/A   Clear
9:35 AM 53.6 °F - 37.4 °F 54% 30.04 in 10.0 mi NW 25.3 mph 32.2 mph N/A   Clear
9:55 AM 55.4 °F - 37.4 °F 51% 30.05 in 10.0 mi NW 27.6 mph 34.5 mph N/A   Clear
10:15 AM 55.4 °F - 37.4 °F 51% 30.06 in 10.0 mi NW 25.3 mph 36.8 mph N/A   Clear
10:35 AM 55.4 °F - 35.6 °F 47% 30.06 in 10.0 mi NNW 26.5 mph 38.0 mph N/A   Clear
10:55 AM 55.4 °F - 33.8 °F 44% 30.07 in 10.0 mi NW 26.5 mph 36.8 mph N/A   Clear
11:15 AM 55.4 °F - 32.0 °F 41% 30.07 in 10.0 mi NNW 28.8 mph 36.8 mph N/A   Clear
11:35 AM 55.4 °F - 32.0 °F 41% 30.07 in 10.0 mi NW 29.9 mph 41.4 mph N/A   Clear
11:55 AM 55.4 °F - 32.0 °F 41% 30.08 in 10.0 mi NW 27.6 mph 36.8 mph N/A   Clear
12:15 PM 55.4 °F - 32.0 °F 41% 30.09 in 10.0 mi NW 28.8 mph 38.0 mph N/A   Clear
12:35 PM 55.4 °F - 33.8 °F 44% 30.09 in 10.0 mi NNW 29.9 mph 35.7 mph N/A   Clear
12:55 PM 55.4 °F - 30.2 °F 38% 30.09 in 10.0 mi NW 29.9 mph 40.3 mph N/A   Clear
1:15 PM 55.4 °F - 33.8 °F 44% 30.09 in 10.0 mi NW 31.1 mph 40.3 mph N/A   Clear
1:35 PM 55.4 °F - 33.8 °F 44% 30.09 in 10.0 mi NW 29.9 mph 40.3 mph N/A   Partly Cloudy
1:55 PM 55.4 °F - 32.0 °F 41% 30.10 in 10.0 mi NW 29.9 mph 36.8 mph N/A   Scattered Clouds
2:15 PM 57.2 °F - 32.0 °F 38% 30.10 in 10.0 mi NW 28.8 mph 41.4 mph N/A   Partly Cloudy
2:35 PM 55.4 °F - 32.0 °F 41% 30.11 in 10.0 mi NW 29.9 mph 42.6 mph N/A   Partly Cloudy
2:55 PM 57.2 °F - 32.0 °F 38% 30.10 in 10.0 mi NW 28.8 mph 40.3 mph N/A   Partly Cloudy
3:15 PM 55.4 °F - 32.0 °F 41% 30.11 in 10.0 mi NW 27.6 mph 38.0 mph N/A   Partly Cloudy
3:35 PM 55.4 °F - 30.2 °F 38% 30.11 in 10.0 mi NW 25.3 mph 34.5 mph N/A   Partly Cloudy
4:15 PM 55.4 °F - 30.2 °F 38% 30.12 in 10.0 mi NNW 27.6 mph 36.8 mph N/A   Scattered Clouds
4:35 PM 55.4 °F - 28.4 °F 36% 30.12 in 10.0 mi NW 24.2 mph 33.4 mph N/A   Partly Cloudy
4:55 PM 55.4 °F - 28.4 °F 36% 30.12 in 10.0 mi NNW 27.6 mph 36.8 mph N/A   Partly Cloudy
5:15 PM 57.2 °F - 28.4 °F 33% 30.12 in 10.0 mi NW 31.1 mph 39.1 mph N/A   Mostly Cloudy
5:35 PM 55.4 °F - 26.6 °F 33% 30.13 in 10.0 mi NNW 28.8 mph 34.5 mph N/A   Scattered Clouds
5:55 PM 55.4 °F - 24.8 °F 31% 30.13 in 10.0 mi NW 25.3 mph 34.5 mph N/A   Partly Cloudy
6:15 PM 55.4 °F - 26.6 °F 33% 30.13 in 10.0 mi NW 20.7 mph 29.9 mph N/A   Scattered Clouds
6:35 PM 55.4 °F - 23.0 °F 29% 30.13 in 10.0 mi NW 20.7 mph 32.2 mph N/A   Partly Cloudy
6:55 PM 53.6 °F - 24.8 °F 33% 30.13 in 10.0 mi NW 23.0 mph - N/A   Partly Cloudy
7:15 PM 53.6 °F - 24.8 °F 33% 30.14 in 10.0 mi NW 17.3 mph 28.8 mph N/A   Clear
7:35 PM 51.8 °F - 23.0 °F 33% 30.14 in 10.0 mi NW 23.0 mph 28.8 mph N/A   Clear
7:55 PM 51.8 °F - 24.8 °F 35% 30.14 in 10.0 mi NW 17.3 mph 23.0 mph N/A   Clear
8:15 PM 50.0 °F - 24.8 °F 37% 30.15 in 10.0 mi NW 12.7 mph - N/A   Clear
8:35 PM 48.2 °F - 24.8 °F 40% 30.16 in 10.0 mi NW 10.4 mph - N/A   Clear
9:15 PM 46.4 °F 42.4 °F 26.6 °F 46% 30.16 in 10.0 mi WNW 8.1 mph - N/A   Clear
9:35 PM 44.6 °F 40.2 °F 26.6 °F 49% 30.17 in 10.0 mi WNW 8.1 mph - N/A   Clear
9:55 PM 44.6 °F 40.2 °F 26.6 °F 49% 30.17 in 10.0 mi WNW 8.1 mph - N/A   Clear
10:15 PM 44.6 °F 39.2 °F 26.6 °F 49% 30.17 in 10.0 mi WNW 10.4 mph - N/A   Clear
10:35 PM 44.6 °F 40.2 °F 26.6 °F 49% 30.18 in 10.0 mi WNW 8.1 mph - N/A   Clear
10:55 PM 42.8 °F 37.5 °F 26.6 °F 53% 30.18 in 10.0 mi WNW 9.2 mph - N/A   Clear
11:15 PM 42.8 °F 37.5 °F 28.4 °F 57% 30.18 in 10.0 mi WNW 9.2 mph - N/A   Clear
11:35 PM 41.0 °F 35.8 °F 28.4 °F 61% 30.18 in 10.0 mi WNW 8.1 mph - N/A   Clear
11:55 PM 41.0 °F 35.2 °F 28.4 °F 61% 30.18 in 10.0 mi WNW 9.2 mph - N/A   Clear